sat.trackr.live / text

‹ back to catalog

STARLINK-5262

NORAD 54207 · 2022-141BC

PAYLOAD ACTIVE UNKNOWN

§ Identity

Operator
Country
US
Launch date
2022-10-28
Launch site
AFWTR
Launch vehicle
Mass (kg)
RCS (m²)

Purposes: comms

External: N2YO · Heavens-Above · Gunter

§ Orbital elements

Epoch: 2026-09-20T11:16:08.358816Z

Period
93.90 min
Inclination
53.1603°
Eccentricity
0.0001229
Mean motion
15.33540433 rev/d
Perigee alt
464.4 km
Apogee alt
466.1 km
Semi-major
6,843.4 km
B*
-6.0540e-5
RAAN
189.8985°
Arg perigee
78.6787°
Mean anomaly
281.4354°
Rev number
21,553

§ Raw data

STARLINK-52621 54207U 22141BC  26263.46954119 -.00002362  00000+0 -60540-4 0  99992 54207  53.1603 189.8985 0001229  78.6787 281.4354 15.33540433215537

JSON: /api/v1/satellites/54207 · /tle

For live sub-satellite position, see the globe view (requires WebGL).

§ Visibility from observer

Set your observer location to see the next 7 days of passes ≥ 10°. The values pass through the URL so the page stays shareable.

No JS? Fill the form by hand. The geolocation button needs JavaScript.